San Antonio Stinson, TX

10:19 PM CDT on October 20, 2017 (GMT -0500)
Stinson Municipal

Weather History for KSSF - March, 2014

Change the Weather History Date:

Sunday, March 2, 2014

  Actual Average Record
Temperature  
Mean Temperature 57 °F -  
Max Temperature 79 °F 65 °F 91 °F (1999)
Min Temperature 33 °F 47 °F 33 °F (2014)
Degree Days  
Heating Degree Days 8    
Growing Degree Days 7 (Base 50)    
Moisture  
Dew Point 57 °F    
Average Humidity 80    
Maximum Humidity 90    
Minimum Humidity 65    
Precipitation  
Precipitation 0.00 in - - ()
Sea Level Pressure  
Sea Level Pressure 29.94 in    
Wind  
Wind Speed 10 mph (ESE)    
Max Wind Speed 21 mph    
Max Gust Speed 32 mph    
Visibility 8 miles    
Events Rain    
Averages and records for this station are not official NWS values.
T = Trace of Precipitation, MM = Missing Value Source: NWS Daily Summary

Daily Weather History Graph

Daily Weather History Graph

Search for Another Location

Airport or City:

Trip Planner

Search our weather history database for the weather conditions in past years. The results will help you decide how hot, cold, wet, or windy it might be!

Date:

Astronomy

Mar. 02, 2014 Rise Set
Actual Time 6:58 AM CST 6:34 PM CST
Civil Twilight 6:34 AM CST 6:57 PM CST
Nautical Twilight 6:06 AM CST 7:25 PM CST
Astronomical Twilight 5:39 AM CST 7:53 PM CST
Moon 7:40 AM CST (3/2) 8:19 PM CST (3/2)
Length of Visible Light 12h 23m
Length of Day
11h 35m
Waxing Crescent, 3% of the Moon is Illuminated
Mar 2
Waxing Crescent
Mar 8
First Quarter
Mar 16
Full
Mar 23
Last Quarter
Mar 30
New

Hourly Weather History & Observations

Time (CST) Temp. Windchill Dew Point Humidity Pressure Visibility Wind Dir Wind Speed Gust Speed Precip Events Conditions
12:53 AM 71.1 °F - 66.0 °F 84% 29.91 in 10.0 mi SE 8.1 mph - N/A   Overcast
1:36 AM 71.1 °F - 66.0 °F 84% 29.92 in 10.0 mi SE 10.4 mph - N/A   Overcast
1:53 AM 71.1 °F - 66.0 °F 84% 29.89 in 10.0 mi SE 10.4 mph - N/A   Overcast
2:53 AM 71.1 °F - 66.9 °F 87% 29.87 in 10.0 mi SE 10.4 mph - N/A   Overcast
3:07 AM 71.1 °F - 66.9 °F 87% 29.90 in 10.0 mi SSE 9.2 mph - N/A   Overcast
3:24 AM 71.1 °F - 66.9 °F 87% 29.90 in 10.0 mi SSE 6.9 mph - N/A   Overcast
3:53 AM 71.1 °F - 66.9 °F 87% 29.86 in 10.0 mi SSE 9.2 mph - N/A   Overcast
4:17 AM 71.1 °F - 66.9 °F 87% 29.89 in 9.0 mi SSE 5.8 mph - N/A   Overcast
4:53 AM 71.1 °F - 66.9 °F 87% 29.86 in 9.0 mi SSE 9.2 mph - N/A   Overcast
5:04 AM 71.1 °F - 66.9 °F 87% 29.88 in 9.0 mi SE 5.8 mph - N/A   Overcast
5:15 AM 71.1 °F - 66.9 °F 87% 29.88 in 9.0 mi SSE 5.8 mph - N/A   Overcast
5:53 AM 71.1 °F - 66.9 °F 87% 29.87 in 8.0 mi SSE 5.8 mph - N/A   Overcast
6:53 AM 71.1 °F - 66.9 °F 87% 29.87 in 8.0 mi ESE 8.1 mph - N/A   Overcast
7:03 AM 71.1 °F - 68.0 °F 90% 29.90 in 8.0 mi ESE 6.9 mph - N/A   Overcast
7:15 AM 71.1 °F - 68.0 °F 90% 29.89 in 6.0 mi ESE 9.2 mph - N/A   Overcast
7:53 AM 71.1 °F - 68.0 °F 90% 29.87 in 6.0 mi ESE 10.4 mph - N/A   Overcast
8:53 AM 73.0 °F - 66.9 °F 81% 29.89 in 8.0 mi ESE 10.4 mph - N/A   Overcast
9:07 AM 73.0 °F - 66.9 °F 81% 29.92 in 7.0 mi ESE 6.9 mph - N/A   Overcast
9:53 AM 72.0 °F - 68.0 °F 87% 29.90 in 5.0 mi SSE 6.9 mph - N/A Rain Light Rain
10:34 AM 73.0 °F - 69.1 °F 87% 29.92 in 5.0 mi SSE 5.8 mph - N/A   Overcast
10:41 AM 73.0 °F - 69.1 °F 87% 29.92 in 5.0 mi SSE 10.4 mph - N/A Rain Light Rain
10:53 AM 73.9 °F - 68.0 °F 82% 29.89 in 5.0 mi SSE 10.4 mph - N/A   Haze
11:03 AM 73.9 °F - 68.0 °F 82% 29.92 in 5.0 mi SSE 9.2 mph - N/A   Haze
11:32 AM 73.9 °F - 68.0 °F 82% 29.92 in 5.0 mi SE 6.9 mph - N/A   Haze
11:53 AM 75.9 °F - 68.0 °F 76% 29.89 in 5.0 mi SSE 8.1 mph - N/A   Haze
12:25 PM 78.1 °F - 68.0 °F 71% 29.90 in 7.0 mi SE 9.2 mph - N/A   Overcast
12:53 PM 79.0 °F - 68.0 °F 69% 29.85 in 8.0 mi SSE 12.7 mph - N/A   Mostly Cloudy
1:53 PM 66.0 °F - 57.9 °F 75% 29.87 in 10.0 mi NE 20.7 mph 26.5 mph N/A   Overcast
2:01 PM 63.0 °F - 55.0 °F 75% 29.90 in 10.0 mi NNE 16.1 mph 26.5 mph N/A   Overcast
2:08 PM 60.1 °F - 52.0 °F 75% 29.91 in 10.0 mi North 18.4 mph 25.3 mph N/A   Overcast
2:53 PM 57.0 °F - 48.0 °F 72% 29.90 in 10.0 mi NE 15.0 mph 20.7 mph N/A   Overcast
3:53 PM 50.0 °F - 43.0 °F 77% 29.95 in 10.0 mi North 16.1 mph 27.6 mph N/A   Overcast
4:53 PM 43.0 °F 34.2 °F 36.0 °F 76% 30.00 in 10.0 mi North 20.7 mph 32.2 mph N/A   Overcast
5:53 PM 39.9 °F 30.5 °F 32.0 °F 73% 30.04 in 10.0 mi North 19.6 mph 26.5 mph N/A   Overcast
6:53 PM 37.9 °F 28.9 °F 30.0 °F 73% 30.06 in 10.0 mi NNE 16.1 mph 20.7 mph N/A   Overcast
7:53 PM 39.0 °F 31.4 °F 30.9 °F 73% 30.06 in 10.0 mi NNE 12.7 mph - N/A   Overcast
8:37 PM 39.9 °F 32.5 °F 30.0 °F 68% 30.11 in 10.0 mi North 12.7 mph 24.2 mph N/A   Overcast
8:53 PM 39.9 °F 31.8 °F 30.0 °F 68% 30.12 in 10.0 mi NNE 15.0 mph 19.6 mph N/A   Overcast
9:53 PM 39.0 °F 31.0 °F 28.0 °F 65% 30.14 in 10.0 mi NNE 13.8 mph 24.2 mph N/A   Overcast
10:53 PM 35.1 °F 24.1 °F 25.0 °F 67% 30.17 in 10.0 mi NNE 19.6 mph 26.5 mph N/A   Clear
11:53 PM 33.1 °F 22.2 °F 24.1 °F 70% 30.18 in 10.0 mi NNE 17.3 mph 21.9 mph N/A   Clear